TimeEDT,TemperatureF,Dew PointF,Humidity,Sea Level PressureIn,VisibilityMPH,Wind Direction,Wind SpeedMPH,Gust SpeedMPH,PrecipitationIn,Events,Conditions,WindDirDegrees,DateUTC
12:15 AM,69.8,55.4,60,30.14,10.0,ESE,12.7,17.3,N/A,,Overcast,120,2013-03-11 04:15:00
12:35 AM,68.0,55.4,64,30.13,10.0,ESE,11.5,-,N/A,,Scattered Clouds,120,2013-03-11 04:35:00
1:15 AM,68.0,55.4,64,30.12,10.0,ESE,10.4,-,N/A,,Scattered Clouds,120,2013-03-11 05:15:00
1:35 AM,68.0,55.4,64,30.12,10.0,ESE,9.2,-,N/A,,Scattered Clouds,120,2013-03-11 05:35:00
1:55 AM,68.0,55.4,64,30.12,10.0,ESE,11.5,-,N/A,,Scattered Clouds,120,2013-03-11 05:55:00
2:15 AM,68.0,55.4,64,30.11,10.0,ESE,10.4,-,N/A,,Clear,120,2013-03-11 06:15:00
2:55 AM,66.2,55.4,68,30.10,10.0,ESE,10.4,-,N/A,,Clear,120,2013-03-11 06:55:00
3:15 AM,66.2,55.4,68,30.09,10.0,ESE,8.1,-,N/A,,Clear,120,2013-03-11 07:15:00
3:35 AM,66.2,55.4,68,30.08,10.0,ESE,8.1,-,N/A,,Clear,120,2013-03-11 07:35:00
3:55 AM,66.2,55.4,68,30.08,10.0,ESE,6.9,-,N/A,,Scattered Clouds,120,2013-03-11 07:55:00
4:15 AM,68.0,55.4,64,30.07,10.0,ESE,10.4,-,N/A,,Mostly Cloudy,120,2013-03-11 08:15:00
4:35 AM,68.0,55.4,64,30.07,10.0,SE,8.1,-,N/A,,Mostly Cloudy,130,2013-03-11 08:35:00
4:55 AM,68.0,55.4,64,30.06,10.0,ESE,9.2,-,N/A,,Overcast,120,2013-03-11 08:55:00
5:15 AM,66.2,53.6,64,30.06,10.0,ESE,9.2,-,N/A,,Mostly Cloudy,120,2013-03-11 09:15:00
5:35 AM,66.2,53.6,64,30.06,10.0,ESE,9.2,-,N/A,,Scattered Clouds,120,2013-03-11 09:35:00
5:55 AM,66.2,53.6,64,30.06,10.0,ESE,8.1,-,N/A,,Scattered Clouds,120,2013-03-11 09:55:00
6:15 AM,66.2,53.6,64,30.06,10.0,ESE,8.1,-,N/A,,Scattered Clouds,110,2013-03-11 10:15:00
6:47 AM,66.2,55.4,68,30.06,10.0,North,-9999.0,-,N/A,,Scattered Clouds,0,2013-03-11 10:47:00
7:47 AM,66.2,55.4,68,30.07,7.0,North,-9999.0,-,N/A,,Scattered Clouds,0,2013-03-11 11:47:00
8:47 AM,69.8,55.4,60,30.08,7.0,ESE,11.5,-,N/A,,Scattered Clouds,110,2013-03-11 12:47:00
9:47 AM,71.6,53.6,53,30.09,7.0,ESE,11.5,-,N/A,,Scattered Clouds,110,2013-03-11 13:47:00
10:47 AM,73.4,55.4,53,30.09,7.0,ESE,18.4,-,N/A,,Scattered Clouds,120,2013-03-11 14:47:00
11:47 AM,75.2,55.4,50,30.09,7.0,ESE,19.6,-,N/A,,Scattered Clouds,110,2013-03-11 15:47:00
12:47 PM,75.2,55.4,50,30.08,7.0,SE,15.0,-,N/A,,Mostly Cloudy,130,2013-03-11 16:47:00
1:47 PM,73.4,55.4,53,30.05,7.0,ESE,16.1,25.3,N/A,,Mostly Cloudy,120,2013-03-11 17:47:00
2:47 PM,73.4,57.2,57,30.05,7.0,SSE,17.3,26.5,N/A,,Overcast,150,2013-03-11 18:47:00
3:47 PM,75.2,57.2,53,30.03,7.0,SE,15.0,-,N/A,,Mostly Cloudy,140,2013-03-11 19:47:00
4:47 PM,77.0,55.4,47,30.00,7.0,SE,16.1,-,N/A,,Mostly Cloudy,130,2013-03-11 20:47:00
5:47 PM,75.2,55.4,50,29.98,7.0,SE,17.3,23.0,N/A,,Mostly Cloudy,130,2013-03-11 21:47:00
6:47 PM,73.4,57.2,57,29.98,7.0,SSE,15.0,20.7,N/A,,Scattered Clouds,150,2013-03-11 22:47:00
8:15 PM,69.8,57.2,64,30.01,10.0,SSE,6.9,-,N/A,,Clear,160,2013-03-12 00:15:00
8:35 PM,69.8,59.0,68,30.00,10.0,SSE,6.9,-,N/A,,Clear,160,2013-03-12 00:35:00
8:55 PM,69.8,59.0,68,30.01,10.0,South,5.8,-,N/A,,Clear,170,2013-03-12 00:55:00
9:15 PM,69.8,59.0,68,30.01,10.0,South,4.6,-,N/A,,Clear,180,2013-03-12 01:15:00
9:35 PM,68.0,59.0,73,30.01,10.0,South,4.6,-,N/A,,Clear,170,2013-03-12 01:35:00
9:55 PM,68.0,60.8,78,30.01,10.0,SSE,4.6,-,N/A,,Clear,160,2013-03-12 01:55:00
10:15 PM,68.0,60.8,78,30.01,10.0,SSE,8.1,-,N/A,,Clear,160,2013-03-12 02:15:00
10:35 PM,68.0,60.8,78,30.01,10.0,SSE,6.9,-,N/A,,Clear,160,2013-03-12 02:35:00
10:55 PM,68.0,60.8,78,30.02,10.0,SSE,4.6,-,N/A,,Clear,160,2013-03-12 02:55:00
11:15 PM,68.0,60.8,78,30.02,10.0,SSE,5.8,-,N/A,,Clear,160,2013-03-12 03:15:00
11:35 PM,68.0,60.8,78,30.02,10.0,SSE,5.8,-,N/A,,Clear,160,2013-03-12 03:35:00
11:55 PM,68.0,60.8,78,30.02,10.0,SSE,6.9,-,N/A,,Clear,160,2013-03-12 03:55:00